Location: Corte Bragagnani
(45.3000°N, 11.1000°E)
Time: 13:22:54
(UTC+00:00)

STARLINK-1225 - Pass Details

Date: 09 April 2020
Orbit: 549 x 550 km, 53.0° (Epoch: 03 June)

Event Time Altitude Azimuth Distance (km) Brightness Sun altitude
Rises 19:19:29 0° 301° (WNW) 2,723 9.1 -14.8°
Maximum altitude 19:25:49 48° 23° (NNE) 722 4.2 -15.8°
Enters shadow 19:27:48 26° 85° (E) 1,099 4.7 -16.1°
